Flag for Canada Weather past 2 weeks in Pictou County, Nova Scotia, Canada

Now
64 °F

Mild.


Feels Like: 64 °F
Forecast: 60 / 70 °F
Wind: 9 mph from Northwest

Location: Caribou Point

Current Time: Jul 30, 2015 at 12:06:42 PM

Latest Report: Jul 30, 2015 at 11:00 AM


Visibility: N/A

Pressure: 29.91 "Hg

Humidity: 85%

Dew point: 59 °F

Location of Pictou CountyLocation

Historic Weather in Pictou County — Graph

°F

Pictou County temperature yesterday

Maximum temperature yesterday: 69 °F (at 4:00 PM)
Minimum temperature yesterday: 62 °F (at 11:00 PM)
Average temperature yesterday: 65 °F

Past Weeks' High & Low Weather Summary

 TemperatureHumidityPressure
High80 °F (Jul 15, 5:00 PM)100% (Jul 19, 10:00 PM)30.13 "Hg (Jul 19, 10:00 PM)
Low53 °F (Jul 17, 6:00 AM)51% (Jul 18, 11:00 AM)29.53 "Hg (Jul 22, 5:00 PM)
Average62 °F86%29.88 "Hg
* Reported Jul 15 11:00 AM — Jul 30 11:00 AM, Pictou County, Weather by CustomWeather, © 2015

Note: Actual official high and low records may vary slightly from our data, if they occured in-between our weather recording intervals... More about our weather records

Advertising

Pictou County weather history for previous 24 hours

 ConditionsComfort  
Time TempWeatherWind HumidityBarometerVisibility
11:00 AM
Thu, Jul 30
64 °FMild.9 mph85%29.91 "HgN/A
10:00 AM64 °FMild.12 mph87%29.90 "HgN/A
9:00 AM63 °FMild.9 mph85%29.90 "HgN/A
8:00 AM63 °FMild.10 mph87%29.90 "HgN/A
7:00 AM62 °FCool.12 mph87%29.90 "HgN/A
6:00 AM62 °FCool.12 mph86%29.89 "HgN/A
5:00 AM62 °FCool.13 mph86%29.88 "HgN/A
4:00 AM62 °FCool.14 mph81%29.87 "HgN/A
3:00 AM62 °FCool.13 mph86%29.87 "HgN/A
2:00 AM60 °FCool.13 mph92%29.88 "HgN/A
1:00 AM62 °FCool.7 mph88%29.88 "HgN/A
12:00 AM62 °FCool.7 mph86%29.88 "HgN/A
11:00 PM
Wed, Jul 29
62 °FCool.13 mph82%29.88 "HgN/A
10:00 PM62 °FCool.7 mph90%29.88 "HgN/A
9:00 PM64 °FMild.7 mph91%29.87 "HgN/A
8:00 PM64 °FMild.No wind85%29.85 "HgN/A
7:00 PM66 °FMild.8 mph85%29.86 "HgN/A
6:00 PM68 °FMild.8 mph78%29.86 "HgN/A
5:00 PM69 °FMild.15 mph80%29.85 "HgN/A
4:00 PM69 °FMild.10 mph82%29.85 "HgN/A
3:00 PM68 °FMild.12 mph82%29.85 "HgN/A
2:00 PM68 °FMild.12 mph82%29.85 "HgN/A
1:00 PM66 °FMild.13 mph87%29.86 "HgN/A
12:00 PM65 °FMild.9 mph89%29.87 "HgN/A
Weather by CustomWeather, © 2015

See weather overviewHow to use our weather pages